Time,TemperatureF,DewpointF,PressureIn,WindDirection,WindDirectionDegrees,WindSpeedMPH,WindSpeedGustMPH,Humidity,HourlyPrecipIn,Conditions,Clouds,dailyrainin,SoftwareType,DateUTC
2013-02-13 00:15:00,-10.8,-15.7,29.65,North,0,1.7,-999.0,78,-99.99,,,0.00,Acu-Link.com,2013-02-13 09:15:00,
2013-02-13 00:31:00,-11.0,-15.9,29.65,North,0,2.2,-999.0,78,-99.99,,,0.00,Acu-Link.com,2013-02-13 09:31:00,
2013-02-13 00:46:00,-11.4,-16.3,29.65,North,0,0.0,-999.0,78,-99.99,,,0.00,Acu-Link.com,2013-02-13 09:46:00,
2013-02-13 01:02:00,-12.5,-17.9,29.66,North,0,0.0,-999.0,76,-99.99,,,0.00,Acu-Link.com,2013-02-13 10:02:00,
2013-02-13 01:17:00,-12.8,-17.9,29.65,North,0,0.0,-999.0,77,-99.99,,,0.00,Acu-Link.com,2013-02-13 10:17:00,
2013-02-13 01:32:00,-11.7,-16.6,29.66,North,0,0.0,-999.0,78,-99.99,,,0.00,Acu-Link.com,2013-02-13 10:32:00,
2013-02-13 01:47:00,-12.1,-17.0,29.66,North,0,0.0,-999.0,78,-99.99,,,0.00,Acu-Link.com,2013-02-13 10:47:00,
2013-02-13 02:03:00,-11.6,-16.5,29.65,North,0,0.0,-999.0,78,-99.99,,,0.00,Acu-Link.com,2013-02-13 11:03:00,
2013-02-13 02:18:00,-11.2,-15.9,29.65,North,0,0.0,-999.0,79,-99.99,,,0.00,Acu-Link.com,2013-02-13 11:18:00,
2013-02-13 02:33:00,-11.7,-16.8,29.66,North,0,2.2,-999.0,77,-99.99,,,0.00,Acu-Link.com,2013-02-13 11:33:00,
2013-02-13 02:48:00,-11.7,-16.8,29.66,North,0,0.0,-999.0,77,-99.99,,,0.00,Acu-Link.com,2013-02-13 11:48:00,
2013-02-13 03:04:00,-11.9,-17.0,29.65,North,0,0.0,-999.0,77,-99.99,,,0.00,Acu-Link.com,2013-02-13 12:04:00,
2013-02-13 03:19:00,-12.6,-18.0,29.66,North,0,0.0,-999.0,76,-99.99,,,0.00,Acu-Link.com,2013-02-13 12:19:00,
2013-02-13 03:34:00,-12.5,-17.6,29.65,North,0,0.0,-999.0,77,-99.99,,,0.00,Acu-Link.com,2013-02-13 12:34:00,
2013-02-13 03:49:00,-11.4,-16.3,29.65,North,0,2.2,-999.0,78,-99.99,,,0.00,Acu-Link.com,2013-02-13 12:49:00,
2013-02-13 04:05:00,-11.7,-16.8,29.65,North,0,0.0,-999.0,77,-99.99,,,0.00,Acu-Link.com,2013-02-13 13:05:00,
2013-02-13 04:20:00,-11.6,-16.8,29.65,North,0,0.0,-999.0,77,-99.99,,,0.00,Acu-Link.com,2013-02-13 13:20:00,
2013-02-13 04:35:00,-11.9,-17.0,29.65,North,0,0.0,-999.0,77,-99.99,,,0.00,Acu-Link.com,2013-02-13 13:35:00,
2013-02-13 04:50:00,-12.3,-17.4,29.65,North,0,0.0,-999.0,77,-99.99,,,0.00,Acu-Link.com,2013-02-13 13:50:00,
2013-02-13 05:06:00,-12.1,-17.0,29.65,North,0,1.7,-999.0,78,-99.99,,,0.00,Acu-Link.com,2013-02-13 14:06:00,
2013-02-13 05:21:00,-12.6,-18.0,29.65,North,0,0.0,-999.0,76,-99.99,,,0.00,Acu-Link.com,2013-02-13 14:21:00,
2013-02-13 05:36:00,-12.6,-18.0,29.66,North,0,0.0,-999.0,76,-99.99,,,0.00,Acu-Link.com,2013-02-13 14:36:00,
2013-02-13 05:51:00,-11.7,-16.6,29.65,North,0,0.0,-999.0,78,-99.99,,,0.00,Acu-Link.com,2013-02-13 14:51:00,
2013-02-13 06:07:00,-11.9,-17.0,29.64,North,0,0.0,-999.0,77,-99.99,,,0.00,Acu-Link.com,2013-02-13 15:07:00,
2013-02-13 06:22:00,-11.9,-17.0,29.65,North,0,0.0,-999.0,77,-99.99,,,0.00,Acu-Link.com,2013-02-13 15:22:00,
2013-02-13 06:37:00,-12.1,-17.5,29.64,North,0,0.0,-999.0,76,-99.99,,,0.00,Acu-Link.com,2013-02-13 15:37:00,
2013-02-13 06:52:00,-11.9,-17.0,29.64,North,0,0.0,-999.0,77,-99.99,,,0.00,Acu-Link.com,2013-02-13 15:52:00,
2013-02-13 07:08:00,-12.3,-17.7,29.64,North,0,0.0,-999.0,76,-99.99,,,0.00,Acu-Link.com,2013-02-13 16:08:00,
2013-02-13 07:23:00,-12.1,-17.2,29.64,North,0,2.7,-999.0,77,-99.99,,,0.00,Acu-Link.com,2013-02-13 16:23:00,
2013-02-13 07:38:00,-12.3,-17.7,29.63,North,0,0.0,-999.0,76,-99.99,,,0.00,Acu-Link.com,2013-02-13 16:38:00,
2013-02-13 07:53:00,-12.3,-17.4,29.63,North,0,0.0,-999.0,77,-99.99,,,0.00,Acu-Link.com,2013-02-13 16:53:00,
2013-02-13 08:08:00,-11.6,-16.5,29.63,North,0,0.0,-999.0,78,-99.99,,,0.00,Acu-Link.com,2013-02-13 17:08:00,
2013-02-13 08:24:00,-12.5,-17.9,29.63,North,0,0.0,-999.0,76,-99.99,,,0.00,Acu-Link.com,2013-02-13 17:24:00,
2013-02-13 08:39:00,-12.3,-17.7,29.63,North,0,0.0,-999.0,76,-99.99,,,0.00,Acu-Link.com,2013-02-13 17:39:00,
2013-02-13 08:54:00,-12.5,-17.9,29.63,North,0,2.2,-999.0,76,-99.99,,,0.00,Acu-Link.com,2013-02-13 17:54:00,
2013-02-13 09:10:00,-11.7,-16.8,29.63,North,0,0.0,-999.0,77,-99.99,,,0.00,Acu-Link.com,2013-02-13 18:10:00,
2013-02-13 09:30:00,-10.7,-15.6,29.63,North,0,1.1,-999.0,78,-99.99,,,0.00,Acu-Link.com,2013-02-13 18:30:00,
2013-02-13 09:46:00,-11.0,-16.2,29.64,North,0,0.0,-999.0,77,-99.99,,,0.00,Acu-Link.com,2013-02-13 18:46:00,
2013-02-13 10:01:00,-10.1,-15.0,29.64,North,0,0.0,-999.0,78,-99.99,,,0.00,Acu-Link.com,2013-02-13 19:01:00,
2013-02-13 10:16:00,-10.1,-15.3,29.64,North,0,2.2,-999.0,77,-99.99,,,0.00,Acu-Link.com,2013-02-13 19:16:00,
2013-02-13 10:32:00,-8.9,-13.9,29.63,North,0,0.0,-999.0,78,-99.99,,,0.00,Acu-Link.com,2013-02-13 19:32:00,
2013-02-13 10:47:00,-8.5,-13.7,29.63,North,0,0.0,-999.0,77,-99.99,,,0.00,Acu-Link.com,2013-02-13 19:47:00,
2013-02-13 11:04:00,-7.2,-12.0,29.64,North,0,0.0,-999.0,79,-99.99,,,0.00,Acu-Link.com,2013-02-13 20:04:00,
2013-02-13 11:19:00,-6.5,-11.0,29.65,North,0,1.7,-999.0,80,-99.99,,,0.00,Acu-Link.com,2013-02-13 20:19:00,
2013-02-13 11:34:00,-4.7,-9.3,29.64,North,0,0.0,-999.0,80,-99.99,,,0.00,Acu-Link.com,2013-02-13 20:34:00,
2013-02-13 11:49:00,-4.0,-8.6,29.64,North,0,1.7,-999.0,80,-99.99,,,0.00,Acu-Link.com,2013-02-13 20:49:00,
2013-02-13 12:05:00,-0.6,-4.5,29.64,North,0,1.7,-999.0,83,-99.99,,,0.00,Acu-Link.com,2013-02-13 21:05:00,
2013-02-13 12:28:00,0.1,-4.1,29.64,North,0,0.0,-999.0,82,-99.99,,,0.00,Acu-Link.com,2013-02-13 21:28:00,
2013-02-13 12:43:00,1.6,-2.6,29.63,North,0,0.0,-999.0,82,-99.99,,,0.00,Acu-Link.com,2013-02-13 21:43:00,
2013-02-13 13:04:00,1.6,-2.6,29.64,North,0,0.0,-999.0,82,-99.99,,,0.00,Acu-Link.com,2013-02-13 22:04:00,
2013-02-13 13:20:00,3.9,0.4,29.63,North,0,2.2,-999.0,85,-99.99,,,0.00,Acu-Link.com,2013-02-13 22:20:00,
2013-02-13 13:35:00,4.5,0.8,29.64,North,0,0.0,-999.0,84,-99.99,,,0.00,Acu-Link.com,2013-02-13 22:35:00,
2013-02-13 13:50:00,5.4,2.1,29.63,North,0,0.0,-999.0,86,-99.99,,,0.00,Acu-Link.com,2013-02-13 22:50:00,
2013-02-13 14:05:00,6.8,3.3,29.63,North,0,0.0,-999.0,85,-99.99,,,0.00,Acu-Link.com,2013-02-13 23:05:00,
2013-02-13 14:25:00,10.6,7.5,29.63,North,0,0.0,-999.0,87,-99.99,,,0.00,Acu-Link.com,2013-02-13 23:25:00,
2013-02-13 14:40:00,11.3,7.2,29.62,North,0,1.1,-999.0,83,-99.99,,,0.00,Acu-Link.com,2013-02-13 23:40:00,
2013-02-13 14:59:00,12.4,8.2,29.61,North,0,1.7,-999.0,83,-99.99,,,0.00,Acu-Link.com,2013-02-13 23:59:00,
2013-02-13 15:44:00,11.7,7.3,29.60,North,0,0.0,-999.0,82,-99.99,,,0.00,Acu-Link.com,2013-02-14 00:44:00,
2013-02-13 16:02:00,14.9,9.9,29.60,North,0,2.7,-999.0,80,-99.99,,,0.00,Acu-Link.com,2013-02-14 01:02:00,
2013-02-13 16:34:00,15.6,10.6,29.60,North,0,1.1,-999.0,80,-99.99,,,0.00,Acu-Link.com,2013-02-14 01:34:00,
2013-02-13 16:49:00,11.8,8.2,29.60,North,0,2.2,-999.0,85,-99.99,,,0.00,Acu-Link.com,2013-02-14 01:49:00,
2013-02-13 17:05:00,10.4,7.3,29.60,North,0,3.7,-999.0,87,-99.99,,,0.00,Acu-Link.com,2013-02-14 02:05:00,
2013-02-13 17:20:00,9.0,5.9,29.61,North,0,2.2,-999.0,87,-99.99,,,0.00,Acu-Link.com,2013-02-14 02:20:00,
2013-02-13 17:36:00,7.9,5.1,29.61,North,0,0.0,-999.0,88,-99.99,,,0.00,Acu-Link.com,2013-02-14 02:36:00,
2013-02-13 17:51:00,6.1,3.1,29.61,North,0,0.0,-999.0,87,-99.99,,,0.00,Acu-Link.com,2013-02-14 02:51:00,
2013-02-13 18:06:00,6.4,3.9,29.60,North,0,2.7,-999.0,89,-99.99,,,0.00,Acu-Link.com,2013-02-14 03:06:00,
2013-02-13 18:21:00,5.4,2.4,29.60,North,0,0.0,-999.0,87,-99.99,,,0.00,Acu-Link.com,2013-02-14 03:21:00,
2013-02-13 18:37:00,4.5,1.5,29.61,North,0,1.7,-999.0,87,-99.99,,,0.00,Acu-Link.com,2013-02-14 03:37:00,
2013-02-13 18:52:00,4.1,1.1,29.60,North,0,2.2,-999.0,87,-99.99,,,0.00,Acu-Link.com,2013-02-14 03:52:00,
2013-02-13 19:09:00,3.7,0.5,29.60,North,0,0.0,-999.0,86,-99.99,,,0.00,Acu-Link.com,2013-02-14 04:09:00,
2013-02-13 19:25:00,2.8,-0.2,29.60,North,0,0.0,-999.0,87,-99.99,,,0.00,Acu-Link.com,2013-02-14 04:25:00,
2013-02-13 19:40:00,2.7,0.0,29.60,North,0,0.0,-999.0,88,-99.99,,,0.00,Acu-Link.com,2013-02-14 04:40:00,
2013-02-13 19:56:00,2.1,-1.1,29.60,North,0,0.0,-999.0,86,-99.99,,,0.00,Acu-Link.com,2013-02-14 04:56:00,
2013-02-13 20:11:00,1.2,-2.5,29.60,North,0,0.0,-999.0,84,-99.99,,,0.00,Acu-Link.com,2013-02-14 05:11:00,
2013-02-13 20:37:00,2.3,-0.7,29.61,North,0,0.0,-999.0,87,-99.99,,,0.00,Acu-Link.com,2013-02-14 05:37:00,
2013-02-13 21:13:00,2.7,0.0,29.60,North,0,0.0,-999.0,88,-99.99,,,0.00,Acu-Link.com,2013-02-14 06:13:00,
2013-02-13 21:30:00,1.4,-1.8,29.61,North,0,0.0,-999.0,86,-99.99,,,0.00,Acu-Link.com,2013-02-14 06:30:00,
2013-02-13 22:00:00,-1.1,-4.7,29.60,North,0,0.0,-999.0,84,-99.99,,,0.00,Acu-Link.com,2013-02-14 07:00:00,
2013-02-13 22:16:00,-0.9,-4.5,29.60,North,0,0.0,-999.0,84,-99.99,,,0.00,Acu-Link.com,2013-02-14 07:16:00,